Time,TemperatureF,DewpointF,PressureIn,WindDirection,WindDirectionDegrees,WindSpeedMPH,WindSpeedGustMPH,Humidity,HourlyPrecipIn,Conditions,Clouds,dailyrainin,SolarRadiationWatts/m^2,SoftwareType,DateUTC
2013-09-21 00:14:00,58.5,56.0,30.10,WNW,298,0.0,0.0,91,0.00,,,0.00,0,weatherlink.com 1.10,2013-09-21 04:14:00,
2013-09-21 00:44:00,58.2,56.0,30.10,ESE,102,0.0,0.0,91,0.00,,,0.00,0,weatherlink.com 1.10,2013-09-21 04:44:00,
2013-09-21 00:59:00,58.0,55.0,30.10,ESE,102,0.0,0.0,91,0.00,,,0.00,0,weatherlink.com 1.10,2013-09-21 04:59:00,
2013-09-21 01:14:00,58.2,56.0,30.10,ESE,102,0.0,0.0,92,0.00,,,0.00,0,weatherlink.com 1.10,2013-09-21 05:14:00,
2013-09-21 01:29:00,58.3,56.0,30.11,ESE,102,0.0,0.0,92,0.00,,,0.00,0,weatherlink.com 1.10,2013-09-21 05:29:00,
2013-09-21 01:44:00,58.1,56.0,30.10,ESE,102,0.0,0.0,92,0.00,,,0.00,0,weatherlink.com 1.10,2013-09-21 05:44:00,
2013-09-21 01:59:00,58.0,56.0,30.10,ESE,102,0.0,0.0,92,0.00,,,0.00,0,weatherlink.com 1.10,2013-09-21 05:59:00,
2013-09-21 02:14:00,57.8,56.0,30.09,ESE,102,0.0,0.0,92,0.00,,,0.00,0,weatherlink.com 1.10,2013-09-21 06:14:00,
2013-09-21 02:29:00,57.7,55.0,30.09,ESE,102,0.0,0.0,92,0.00,,,0.00,0,weatherlink.com 1.10,2013-09-21 06:29:00,
2013-09-21 02:44:00,57.5,55.0,30.09,ESE,102,0.0,0.0,92,0.00,,,0.00,0,weatherlink.com 1.10,2013-09-21 06:44:00,
2013-09-21 02:59:00,57.5,55.0,30.08,ESE,102,0.0,0.0,92,0.00,,,0.00,0,weatherlink.com 1.10,2013-09-21 06:59:00,
2013-09-21 03:14:00,57.3,55.0,30.07,ESE,102,0.0,0.0,92,0.00,,,0.00,0,weatherlink.com 1.10,2013-09-21 07:14:00,
2013-09-21 03:29:00,57.3,55.0,30.08,ESE,102,0.0,0.0,92,0.00,,,0.00,0,weatherlink.com 1.10,2013-09-21 07:29:00,
2013-09-21 03:44:00,57.3,55.0,30.07,ESE,102,0.0,0.0,93,0.00,,,0.00,0,weatherlink.com 1.10,2013-09-21 07:44:00,
2013-09-21 03:59:00,57.3,55.0,30.06,ESE,102,0.0,0.0,93,0.00,,,0.00,0,weatherlink.com 1.10,2013-09-21 07:59:00,
2013-09-21 04:14:00,57.8,56.0,30.06,ESE,102,0.0,0.0,93,0.00,,,0.00,0,weatherlink.com 1.10,2013-09-21 08:14:00,
2013-09-21 04:29:00,57.8,56.0,30.06,ESE,102,0.0,0.0,93,0.00,,,0.00,0,weatherlink.com 1.10,2013-09-21 08:29:00,
2013-09-21 04:44:00,57.8,56.0,30.06,ESE,102,0.0,0.0,93,0.00,,,0.00,0,weatherlink.com 1.10,2013-09-21 08:44:00,
2013-09-21 04:59:00,57.7,56.0,30.06,ESE,102,0.0,0.0,93,0.00,,,0.00,0,weatherlink.com 1.10,2013-09-21 08:59:00,
2013-09-21 05:14:00,57.8,56.0,30.06,ESE,102,0.0,0.0,93,0.00,,,0.00,0,weatherlink.com 1.10,2013-09-21 09:14:00,
2013-09-21 05:29:00,57.8,56.0,30.06,ESE,102,0.0,0.0,93,0.00,,,0.00,0,weatherlink.com 1.10,2013-09-21 09:29:00,
2013-09-21 05:44:00,57.7,56.0,30.05,ESE,102,0.0,0.0,93,0.00,,,0.00,0,weatherlink.com 1.10,2013-09-21 09:44:00,
2013-09-21 05:59:00,57.6,56.0,30.05,ESE,102,0.0,0.0,93,0.00,,,0.00,0,weatherlink.com 1.10,2013-09-21 09:59:00,
2013-09-21 06:15:00,57.4,55.0,30.06,ESE,102,0.0,0.0,93,0.00,,,0.00,0,weatherlink.com 1.10,2013-09-21 10:15:00,
2013-09-21 06:29:00,57.3,55.0,30.07,ESE,102,0.0,0.0,93,0.00,,,0.00,0,weatherlink.com 1.10,2013-09-21 10:29:00,
2013-09-21 06:45:00,57.2,55.0,30.07,ESE,102,0.0,0.0,93,0.00,,,0.00,5,weatherlink.com 1.10,2013-09-21 10:45:00,
2013-09-21 07:00:00,56.9,55.0,30.06,ESE,102,0.0,0.0,93,0.00,,,0.00,11,weatherlink.com 1.10,2013-09-21 11:00:00,
2013-09-21 07:15:00,56.6,55.0,30.07,ESE,102,0.0,0.0,93,0.00,,,0.00,18,weatherlink.com 1.10,2013-09-21 11:15:00,
2013-09-21 07:30:00,56.4,55.0,30.06,ESE,102,0.0,0.0,93,0.00,,,0.00,44,weatherlink.com 1.10,2013-09-21 11:30:00,
2013-09-21 07:45:00,56.4,55.0,30.05,ESE,102,0.0,0.0,94,0.00,,,0.00,63,weatherlink.com 1.10,2013-09-21 11:45:00,
2013-09-21 08:00:00,56.9,55.0,30.06,ESE,102,0.0,0.0,94,0.00,,,0.00,155,weatherlink.com 1.10,2013-09-21 12:00:00,
2013-09-21 08:15:00,58.0,56.0,30.05,ESE,106,0.0,1.0,94,0.00,,,0.00,65,weatherlink.com 1.10,2013-09-21 12:15:00,
2013-09-21 08:30:00,59.1,58.0,30.05,ESE,106,0.0,1.0,95,0.00,,,0.00,90,weatherlink.com 1.10,2013-09-21 12:30:00,
2013-09-21 08:45:00,60.0,59.0,30.04,ESE,102,0.0,2.0,95,0.00,,,0.00,56,weatherlink.com 1.10,2013-09-21 12:45:00,
2013-09-21 09:00:00,61.1,60.0,30.04,East,101,0.0,0.0,95,0.00,,,0.00,151,weatherlink.com 1.10,2013-09-21 13:00:00,
2013-09-21 09:15:00,62.9,62.0,30.04,West,274,0.0,2.0,95,0.00,,,0.00,163,weatherlink.com 1.10,2013-09-21 13:15:00,
2013-09-21 09:30:00,63.2,62.0,30.03,South,189,0.0,1.0,94,0.00,,,0.00,162,weatherlink.com 1.10,2013-09-21 13:30:00,
2013-09-21 09:45:00,63.5,62.0,30.03,West,269,0.0,2.0,94,0.00,,,0.00,139,weatherlink.com 1.10,2013-09-21 13:45:00,
2013-09-21 10:00:00,64.4,62.0,30.02,ESE,104,1.0,3.0,92,0.00,,,0.00,123,weatherlink.com 1.10,2013-09-21 14:00:00,
2013-09-21 10:15:00,64.6,62.0,30.01,South,186,0.0,1.0,91,0.00,,,0.00,388,weatherlink.com 1.10,2013-09-21 14:15:00,
2013-09-21 10:30:00,65.4,62.0,30.01,SSE,163,0.0,5.0,89,0.00,,,0.00,165,weatherlink.com 1.10,2013-09-21 14:30:00,
2013-09-21 10:45:00,65.6,62.0,30.00,ESE,109,0.0,2.0,87,0.00,,,0.00,76,weatherlink.com 1.10,2013-09-21 14:45:00,
2013-09-21 11:00:00,65.5,62.0,30.00,West,265,0.0,1.0,87,0.00,,,0.00,47,weatherlink.com 1.10,2013-09-21 15:00:00,
2013-09-21 11:15:00,65.5,62.0,29.99,SE,124,0.0,2.0,88,0.00,,,0.00,234,weatherlink.com 1.10,2013-09-21 15:15:00,
2013-09-21 11:30:00,66.0,63.0,29.98,East,94,1.0,3.0,89,0.00,,,0.00,232,weatherlink.com 1.10,2013-09-21 15:30:00,
2013-09-21 11:45:00,66.5,63.0,29.98,SW,231,0.0,4.0,88,0.00,,,0.00,151,weatherlink.com 1.10,2013-09-21 15:45:00,
2013-09-21 12:00:00,67.3,63.0,29.97,WNW,284,0.0,5.0,87,0.00,,,0.00,137,weatherlink.com 1.10,2013-09-21 16:00:00,
2013-09-21 12:15:00,67.3,63.0,29.97,ENE,58,0.0,2.0,86,0.00,,,0.00,104,weatherlink.com 1.10,2013-09-21 16:15:00,
2013-09-21 12:30:00,67.4,64.0,29.97,SSE,167,0.0,4.0,87,0.00,,,0.00,93,weatherlink.com 1.10,2013-09-21 16:30:00,
2013-09-21 12:45:00,67.5,64.0,29.96,SE,138,3.0,8.0,88,0.00,,,0.00,218,weatherlink.com 1.10,2013-09-21 16:45:00,
2013-09-21 13:00:00,68.5,65.0,29.95,South,175,3.0,3.0,88,0.00,,,0.00,179,weatherlink.com 1.10,2013-09-21 17:00:00,
2013-09-21 13:16:00,68.8,65.0,29.94,North,349,0.0,2.0,87,0.00,,,0.00,81,weatherlink.com 1.10,2013-09-21 17:16:00,
2013-09-21 13:31:00,69.1,65.0,29.93,WSW,242,0.0,4.0,87,0.00,,,0.00,230,weatherlink.com 1.10,2013-09-21 17:31:00,
2013-09-21 13:46:00,69.7,65.0,29.93,South,173,1.0,4.0,86,0.00,,,0.00,234,weatherlink.com 1.10,2013-09-21 17:46:00,
2013-09-21 14:01:00,70.4,66.0,29.91,SW,225,0.0,7.0,85,0.00,,,0.00,192,weatherlink.com 1.10,2013-09-21 18:01:00,
2013-09-21 14:16:00,71.0,66.0,29.91,ENE,61,1.0,5.0,83,0.00,,,0.00,272,weatherlink.com 1.10,2013-09-21 18:16:00,
2013-09-21 14:31:00,71.7,66.0,29.90,South,182,1.0,8.0,82,0.00,,,0.00,664,weatherlink.com 1.10,2013-09-21 18:31:00,
2013-09-21 14:46:00,72.6,66.0,29.89,SW,236,0.0,6.0,80,0.00,,,0.00,258,weatherlink.com 1.10,2013-09-21 18:46:00,
2013-09-21 15:01:00,72.3,65.0,29.88,SSW,212,1.0,11.0,78,0.00,,,0.00,244,weatherlink.com 1.10,2013-09-21 19:01:00,
2013-09-21 15:16:00,72.4,65.0,29.88,SSW,195,0.0,8.0,78,0.00,,,0.00,218,weatherlink.com 1.10,2013-09-21 19:16:00,
2013-09-21 15:31:00,72.0,65.0,29.87,SSW,209,0.0,13.0,79,0.00,,,0.00,130,weatherlink.com 1.10,2013-09-21 19:31:00,
2013-09-21 15:46:00,72.0,65.0,29.87,SE,142,2.0,18.0,78,0.00,,,0.00,144,weatherlink.com 1.10,2013-09-21 19:46:00,
2013-09-21 16:01:00,72.0,66.0,29.87,West,263,2.0,5.0,80,0.00,,,0.00,183,weatherlink.com 1.10,2013-09-21 20:01:00,
2013-09-21 16:16:00,71.9,65.0,29.86,West,270,0.0,9.0,79,0.00,,,0.00,178,weatherlink.com 1.10,2013-09-21 20:16:00,
2013-09-21 16:31:00,71.5,65.0,29.86,WSW,237,4.0,8.0,80,0.00,,,0.00,109,weatherlink.com 1.10,2013-09-21 20:31:00,
2013-09-21 16:46:00,71.3,66.0,29.86,SSE,166,0.0,9.0,82,0.00,,,0.00,69,weatherlink.com 1.10,2013-09-21 20:46:00,
2013-09-21 17:01:00,71.1,65.0,29.85,SSW,193,2.0,5.0,82,0.00,,,0.00,90,weatherlink.com 1.10,2013-09-21 21:01:00,
2013-09-21 17:16:00,70.8,65.0,29.85,SW,227,0.0,5.0,83,0.00,,,0.00,90,weatherlink.com 1.10,2013-09-21 21:16:00,
2013-09-21 17:31:00,70.7,65.0,29.85,SW,219,2.0,6.0,83,0.00,,,0.00,97,weatherlink.com 1.10,2013-09-21 21:31:00,
2013-09-21 17:46:00,70.4,65.0,29.85,NW,304,2.0,7.0,83,0.00,,,0.00,42,weatherlink.com 1.10,2013-09-21 21:46:00,
2013-09-21 18:01:00,70.1,65.0,29.84,SSE,160,1.0,6.0,84,0.00,,,0.00,11,weatherlink.com 1.10,2013-09-21 22:01:00,
2013-09-21 18:16:00,69.6,65.0,29.84,ESE,121,0.0,11.0,85,0.00,,,0.00,14,weatherlink.com 1.10,2013-09-21 22:16:00,
2013-09-21 18:31:00,69.3,65.0,29.84,SW,227,0.0,7.0,86,0.00,,,0.00,7,weatherlink.com 1.10,2013-09-21 22:31:00,
2013-09-21 18:46:00,69.1,65.0,29.83,WNW,292,0.0,8.0,86,0.00,,,0.00,0,weatherlink.com 1.10,2013-09-21 22:46:00,
2013-09-21 19:01:00,69.0,65.0,29.83,SSW,210,0.0,2.0,87,0.00,,,0.00,0,weatherlink.com 1.10,2013-09-21 23:01:00,
2013-09-21 19:16:00,68.8,65.0,29.82,SE,124,0.0,4.0,87,0.00,,,0.00,0,weatherlink.com 1.10,2013-09-21 23:16:00,
2013-09-21 19:31:00,68.6,65.0,29.82,NNE,24,2.0,5.0,88,0.00,,,0.00,0,weatherlink.com 1.10,2013-09-21 23:31:00,
2013-09-21 19:46:00,68.5,65.0,29.83,SSW,196,0.0,12.0,89,0.00,,,0.00,0,weatherlink.com 1.10,2013-09-21 23:46:00,
2013-09-21 20:01:00,68.4,65.0,29.83,SSE,163,0.0,9.0,89,0.00,,,0.00,0,weatherlink.com 1.10,2013-09-22 00:01:00,
2013-09-21 20:16:00,68.4,65.0,29.83,SW,228,1.0,4.0,90,0.00,,,0.00,0,weatherlink.com 1.10,2013-09-22 00:16:00,
2013-09-21 20:31:00,68.4,65.0,29.82,ENE,75,0.0,4.0,90,0.00,,,0.00,0,weatherlink.com 1.10,2013-09-22 00:31:00,
2013-09-21 20:46:00,68.3,65.0,29.82,WSW,257,1.0,6.0,90,0.00,,,0.00,0,weatherlink.com 1.10,2013-09-22 00:46:00,
2013-09-21 21:01:00,68.3,65.0,29.81,SE,144,0.0,7.0,90,0.00,,,0.00,0,weatherlink.com 1.10,2013-09-22 01:01:00,
2013-09-21 21:16:00,68.3,65.0,29.81,SW,233,0.0,6.0,90,0.00,,,0.00,0,weatherlink.com 1.10,2013-09-22 01:16:00,
2013-09-21 21:31:00,68.3,65.0,29.80,SW,215,2.0,5.0,90,0.00,,,0.00,0,weatherlink.com 1.10,2013-09-22 01:31:00,
2013-09-21 21:46:00,68.3,65.0,29.80,West,260,1.0,3.0,90,0.00,,,0.00,0,weatherlink.com 1.10,2013-09-22 01:46:00,
2013-09-21 22:01:00,68.3,65.0,29.79,WSW,240,1.0,4.0,90,0.00,,,0.00,0,weatherlink.com 1.10,2013-09-22 02:01:00,
2013-09-21 22:16:00,68.3,66.0,29.79,WSW,245,2.0,5.0,91,0.00,,,0.00,0,weatherlink.com 1.10,2013-09-22 02:16:00,
2013-09-21 22:31:00,68.4,66.0,29.79,SSW,210,0.0,3.0,91,0.01,,,0.01,0,weatherlink.com 1.10,2013-09-22 02:31:00,
2013-09-21 22:46:00,68.3,66.0,29.78,South,181,1.0,4.0,91,0.01,,,0.01,0,weatherlink.com 1.10,2013-09-22 02:46:00,
2013-09-21 23:02:00,68.1,66.0,29.77,SW,232,1.0,3.0,92,0.01,,,0.01,0,weatherlink.com 1.10,2013-09-22 03:02:00,
2013-09-21 23:17:00,68.0,66.0,29.76,SE,139,0.0,3.0,92,0.02,,,0.02,0,weatherlink.com 1.10,2013-09-22 03:17:00,
2013-09-21 23:32:00,67.8,66.0,29.76,South,186,2.0,4.0,93,0.07,,,0.08,0,weatherlink.com 1.10,2013-09-22 03:32:00,
2013-09-21 23:47:00,67.7,66.0,29.76,West,270,0.0,3.0,93,0.12,,,0.13,0,weatherlink.com 1.10,2013-09-22 03:47:00,